Location: Unspecified
(48.8656°N, 0.0000°E)
Time: 16:34:28
(UTC+00:00)

Transit 2A Rocket - Pass Details

Date: 23 June 2019
Orbit: 588 x 915 km, 66.7° (Epoch: 16 July)

Event Time Altitude Azimuth Distance (km) Brightness Sun altitude
Rises 11:29:05 0° 245° (WSW) 3,543 8.5 63.7°
Reaches altitude 10° 11:31:52 10° 254° (WSW) 2,594 7.9 63.9°
Maximum altitude 11:37:24 36° 319° (NW) 1,383 6.6 64.1°
Drops below altitude 10° 11:42:43 10° 25° (NNE) 2,481 7.5 64.3°
Sets 11:45:19 0° 35° (NE) 3,371 8.1 64.3°
